,,,PA_Meas_PMT16A,,PR_Meas_QMR101_102,,RH_Meas_QMH101,,SR_Meas_QMS101,,TA_Meas_QMH101,,GenWind,,GenWind,
date,time,status,PA,status,PR,status,RH,status,SR,status,TA,status,DirAvg,status,SpdAvg,
2010-04-12, 00:00:04,VALID,999.935,VALID,0,VALID,87.8017,VALID,0,VALID,25.7116,VALID,227,VALID,0.560938,
2010-04-12, 00:01:04,VALID,999.919,VALID,0,VALID,87.939,VALID,0,VALID,25.7116,VALID,235,VALID,0,
2010-04-12, 00:02:04,VALID,999.892,VALID,0,VALID,88.29,VALID,0,VALID,25.6921,VALID,236,VALID,0,
2010-04-12, 00:03:04,VALID,999.876,VALID,0,VALID,88.3205,VALID,0,VALID,25.6531,VALID,240,VALID,0,
2010-04-12, 00:04:04,VALID,999.874,VALID,0,VALID,88.4426,VALID,0,VALID,25.6336,VALID,245,VALID,0,
2010-04-12, 00:05:04,VALID,999.881,VALID,0,VALID,88.1755,VALID,0,VALID,25.5945,VALID,255,VALID,0,
2010-04-12, 00:06:04,VALID,999.896,VALID,0,VALID,88.4731,VALID,0,VALID,25.5945,VALID,255,VALID,0,
2010-04-12, 00:07:04,VALID,999.933,VALID,0,VALID,88.4654,VALID,0,VALID,25.575,VALID,264,VALID,0,
2010-04-12, 00:08:04,VALID,999.955,VALID,0,VALID,88.6104,VALID,0,VALID,25.5145,VALID,288,VALID,0,
2010-04-12, 00:09:04,VALID,999.975,VALID,0,VALID,88.9156,VALID,0,VALID,25.4969,VALID,288,VALID,0,
2010-04-12, 00:10:04,VALID,1000.02,VALID,0,VALID,89.2208,VALID,0,VALID,25.4774,VALID,294,VALID,0,
2010-04-12, 00:11:04,VALID,1000.01,VALID,0,VALID,89.6404,VALID,0,VALID,25.4383,VALID,305,VALID,0,
2010-04-12, 00:12:04,VALID,1000.04,VALID,0,VALID,89.9685,VALID,0,VALID,25.3993,VALID,356,VALID,0,
2010-04-12, 00:13:04,VALID,1000.03,VALID,0,VALID,90.2508,VALID,0,VALID,25.3602,VALID,357,VALID,0.871094,
2010-04-12, 00:14:04,VALID,1000.03,VALID,0,VALID,90.411,VALID,0,VALID,25.3212,VALID,1,VALID,1.23242,
2010-04-12, 00:15:04,VALID,1000.02,VALID,0,VALID,90.5941,VALID,0,VALID,25.2607,VALID,1,VALID,0.880469,
2010-04-12, 00:16:04,VALID,1000.04,VALID,0,VALID,90.7162,VALID,0,VALID,25.2217,VALID,2,VALID,0.669531,
2010-04-12, 00:17:04,VALID,1000,VALID,0,VALID,90.6551,VALID,0,VALID,25.204,VALID,19,VALID,0.867188,
2010-04-12, 00:18:04,VALID,999.961,VALID,0,VALID,90.7391,VALID,0,VALID,25.1826,VALID,20,VALID,0.560156,
2010-04-12, 00:19:04,VALID,999.956,VALID,0,VALID,90.7162,VALID,0,VALID,25.1845,VALID,31,VALID,0.534375,
2010-04-12, 00:20:04,VALID,999.923,VALID,0,VALID,90.762,VALID,0,VALID,25.1631,VALID,34,VALID,0.453125,
2010-04-12, 00:21:04,VALID,999.885,VALID,0,VALID,90.823,VALID,0,VALID,25.1436,VALID,34,VALID,0.0523437,
2010-04-12, 00:22:04,VALID,999.863,VALID,0,VALID,90.9146,VALID,0,VALID,25.1845,VALID,62,VALID,0.711719,
2010-04-12, 00:23:04,VALID,999.831,VALID,0,VALID,90.9756,VALID,0,VALID,25.1845,VALID,71,VALID,0.876562,
2010-04-12, 00:24:04,VALID,999.806,VALID,0,VALID,90.7849,VALID,0,VALID,25.204,VALID,71,VALID,0.782422,
2010-04-12, 00:25:04,VALID,999.79,VALID,0,VALID,90.9451,VALID,0,VALID,25.2021,VALID,71,VALID,0.677344,
2010-04-12, 00:26:04,VALID,999.753,VALID,0,VALID,91.029,VALID,0,VALID,25.2217,VALID,71,VALID,0.819922,
2010-04-12, 00:27:04,VALID,999.701,VALID,0,VALID,91.1511,VALID,0,VALID,25.2821,VALID,75,VALID,0.85625,
2010-04-12, 00:28:04,VALID,999.672,VALID,0,VALID,91.1968,VALID,0,VALID,25.2607,VALID,75,VALID,0.714063,
2010-04-12, 00:29:04,VALID,999.628,VALID,0,VALID,91.2197,VALID,0,VALID,25.2821,VALID,78,VALID,0.638672,
2010-04-12, 00:30:04,VALID,999.606,VALID,0,VALID,91.3037,VALID,0,VALID,25.2821,VALID,79,VALID,0.566797,
2010-04-12, 00:31:04,VALID,999.552,VALID,0,VALID,91.3266,VALID,0,VALID,25.2626,VALID,81,VALID,0.5625,
2010-04-12, 00:32:04,VALID,999.507,VALID,0,VALID,91.3342,VALID,0,VALID,25.2626,VALID,93,VALID,0.562109,
2010-04-12, 00:33:04,VALID,999.45,VALID,0,VALID,91.3723,VALID,0,VALID,25.2431,VALID,98,VALID,0.350391,
2010-04-12, 00:34:04,VALID,999.427,VALID,0,VALID,91.38,VALID,0,VALID,25.2431,VALID,98,VALID,0.0765625,
2010-04-12, 00:35:04,VALID,999.395,VALID,0,VALID,91.3876,VALID,0,VALID,25.2431,VALID,98,VALID,0,
2010-04-12, 00:36:04,VALID,999.377,VALID,0,VALID,91.3647,VALID,0,VALID,25.2236,VALID,98,VALID,0,
2010-04-12, 00:37:04,VALID,999.364,VALID,0,VALID,91.3418,VALID,0,VALID,25.2236,VALID,98,VALID,0,
2010-04-12, 00:38:04,VALID,999.353,VALID,0,VALID,91.38,VALID,0,VALID,25.1826,VALID,98,VALID,0,
2010-04-12, 00:39:04,VALID,999.358,VALID,0,VALID,91.4028,VALID,0,VALID,25.1826,VALID,98,VALID,0,
2010-04-12, 00:40:04,VALID,999.345,VALID,0,VALID,91.4334,VALID,0,VALID,25.1826,VALID,98,VALID,0,
2010-04-12, 00:41:04,VALID,999.372,VALID,0,VALID,91.4334,VALID,0,VALID,25.1845,VALID,98,VALID,0,
2010-04-12, 00:42:04,VALID,999.383,VALID,0,VALID,91.3952,VALID,0,VALID,25.165,VALID,98,VALID,0,
2010-04-12, 00:43:04,VALID,999.435,VALID,0,VALID,91.3571,VALID,0,VALID,25.165,VALID,98,VALID,0,
2010-04-12, 00:44:04,VALID,999.427,VALID,0,VALID,91.38,VALID,0,VALID,25.1436,VALID,98,VALID,0,
2010-04-12, 00:45:04,VALID,999.498,VALID,0,VALID,91.3647,VALID,0,VALID,25.1436,VALID,98,VALID,0,
2010-04-12, 00:46:04,VALID,999.51,VALID,0,VALID,91.3494,VALID,0,VALID,25.165,VALID,98,VALID,0,
2010-04-12, 00:47:04,VALID,999.547,VALID,0,VALID,91.2655,VALID,0,VALID,25.1436,VALID,98,VALID,0,
2010-04-12, 00:48:04,VALID,999.59,VALID,0,VALID,91.3418,VALID,0,VALID,25.1455,VALID,98,VALID,0,
2010-04-12, 00:49:04,VALID,999.603,VALID,0,VALID,91.4181,VALID,0,VALID,25.1455,VALID,98,VALID,0,
2010-04-12, 00:50:04,VALID,999.587,VALID,0,VALID,91.4563,VALID,0,VALID,25.1241,VALID,98,VALID,0,
2010-04-12, 00:51:04,VALID,999.58,VALID,0,VALID,91.5402,VALID,0,VALID,25.1455,VALID,98,VALID,0,
2010-04-12, 00:52:04,VALID,999.575,VALID,0,VALID,91.5936,VALID,0,VALID,25.165,VALID,98,VALID,0,
2010-04-12, 00:53:04,VALID,999.576,VALID,0,VALID,91.6546,VALID,0,VALID,25.1436,VALID,98,VALID,0,
2010-04-12, 00:54:04,VALID,999.562,VALID,0,VALID,91.6775,VALID,0,VALID,25.1845,VALID,231,VALID,0.367969,
2010-04-12, 00:55:04,VALID,999.555,VALID,0,VALID,91.6851,VALID,0,VALID,25.1845,VALID,239,VALID,0.407422,
2010-04-12, 00:56:04,VALID,999.53,VALID,0,VALID,91.7004,VALID,0,VALID,25.1826,VALID,247,VALID,0.457031,
2010-04-12, 00:57:04,VALID,999.529,VALID,0,VALID,91.647,VALID,0,VALID,25.204,VALID,275,VALID,0.748047,
2010-04-12, 00:58:04,VALID,999.554,VALID,0,VALID,91.6165,VALID,0,VALID,25.165,VALID,283,VALID,0.764063,
2010-04-12, 00:59:04,VALID,999.563,VALID,0,VALID,91.6241,VALID,0,VALID,25.1241,VALID,284,VALID,0.795313,
2010-04-12, 01:00:04,VALID,999.587,VALID,0,VALID,91.6699,VALID,0,VALID,25.1045,VALID,285,VALID,0.726172,
2010-04-12, 01:01:04,VALID,999.592,VALID,0,VALID,91.7157,VALID,0,VALID,25.126,VALID,286,VALID,0.693359,
2010-04-12, 01:02:04,VALID,999.57,VALID,0,VALID,91.708,VALID,0,VALID,25.1064,VALID,282,VALID,0.382422,
2010-04-12, 01:03:04,VALID,999.553,VALID,0,VALID,91.7767,VALID,0,VALID,25.085,VALID,282,VALID,0.329297,
2010-04-12, 01:04:04,VALID,999.555,VALID,0,VALID,91.8225,VALID,0,VALID,25.0655,VALID,282,VALID,0.183203,
2010-04-12, 01:05:04,VALID,999.537,VALID,0,VALID,91.8683,VALID,0,VALID,25.046,VALID,282,VALID,0,
2010-04-12, 01:06:04,VALID,999.497,VALID,0,VALID,91.9369,VALID,0,VALID,25.0655,VALID,282,VALID,0,
2010-04-12, 01:07:04,VALID,999.481,VALID,0,VALID,91.9598,VALID,0,VALID,25.046,VALID,282,VALID,0,
2010-04-12, 01:08:04,VALID,999.456,VALID,0,VALID,91.998,VALID,0,VALID,25.0479,VALID,282,VALID,0,
2010-04-12, 01:09:04,VALID,999.421,VALID,0,VALID,92.0132,VALID,0,VALID,25.0674,VALID,282,VALID,0,
2010-04-12, 01:10:04,VALID,999.374,VALID,0,VALID,92.0361,VALID,0,VALID,25.0265,VALID,282,VALID,0,
2010-04-12, 01:11:04,VALID,999.352,VALID,0,VALID,92.0361,VALID,0,VALID,25.0479,VALID,282,VALID,0,
2010-04-12, 01:12:04,VALID,999.304,VALID,0,VALID,92.059,VALID,0,VALID,25.0265,VALID,282,VALID,0,
2010-04-12, 01:13:04,VALID,999.286,VALID,0,VALID,92.0666,VALID,0,VALID,25.0265,VALID,282,VALID,0,
2010-04-12, 01:14:04,VALID,999.253,VALID,0,VALID,92.0743,VALID,0,VALID,25.0069,VALID,282,VALID,0,
2010-04-12, 01:15:04,VALID,999.222,VALID,0,VALID,92.1353,VALID,0,VALID,25.0479,VALID,282,VALID,0,
2010-04-12, 01:16:04,VALID,999.205,VALID,0,VALID,92.2116,VALID,0,VALID,25.0265,VALID,282,VALID,0,
2010-04-12, 01:17:04,VALID,999.178,VALID,0,VALID,92.2345,VALID,0,VALID,25.0479,VALID,283,VALID,0.126172,
2010-04-12, 01:18:04,VALID,999.149,VALID,0,VALID,92.2268,VALID,0,VALID,25.0284,VALID,282,VALID,0.632813,
2010-04-12, 01:19:04,VALID,999.093,VALID,0,VALID,92.2421,VALID,0,VALID,25.0265,VALID,283,VALID,0.588672,
2010-04-12, 01:20:04,VALID,999.111,VALID,0,VALID,92.2421,VALID,0,VALID,25.0284,VALID,282,VALID,0.444531,
2010-04-12, 01:21:04,VALID,999.05,VALID,0,VALID,92.2803,VALID,0,VALID,25.0069,VALID,282,VALID,0.312891,
2010-04-12, 01:22:04,VALID,999.03,VALID,0,VALID,92.2803,VALID,0,VALID,25.0069,VALID,282,VALID,0.312891,
2010-04-12, 01:23:04,VALID,999.005,VALID,0,VALID,92.2726,VALID,0,VALID,24.9874,VALID,282,VALID,0.505469,
2010-04-12, 01:24:04,VALID,998.967,VALID,0,VALID,92.2803,VALID,0,VALID,24.9874,VALID,283,VALID,0.385547,
2010-04-12, 01:25:04,VALID,998.943,VALID,0,VALID,92.3337,VALID,0,VALID,25.0069,VALID,282,VALID,0,
2010-04-12, 01:26:04,VALID,998.922,VALID,0,VALID,92.3871,VALID,0,VALID,25.0265,VALID,283,VALID,0,
2010-04-12, 01:27:04,VALID,998.895,VALID,0,VALID,92.3794,VALID,0,VALID,25.0479,VALID,283,VALID,0.483594,
2010-04-12, 01:28:04,VALID,998.905,VALID,0,VALID,92.3794,VALID,0,VALID,25.0265,VALID,283,VALID,0.318359,
2010-04-12, 01:29:04,VALID,998.908,VALID,0,VALID,92.3794,VALID,0,VALID,25.0284,VALID,282,VALID,0.0617188,
2010-04-12, 01:30:04,VALID,998.908,VALID,0,VALID,92.4328,VALID,0,VALID,25.0284,VALID,283,VALID,0,
2010-04-12, 01:31:04,VALID,998.901,VALID,0,VALID,92.4634,VALID,0,VALID,25.0069,VALID,282,VALID,0,
2010-04-12, 01:32:04,VALID,998.907,VALID,0,VALID,92.4634,VALID,0,VALID,25.0069,VALID,282,VALID,0,
2010-04-12, 01:33:04,VALID,998.946,VALID,0,VALID,92.4252,VALID,0,VALID,25.0088,VALID,282,VALID,0,
2010-04-12, 01:34:04,VALID,998.954,VALID,0,VALID,92.41,VALID,0,VALID,24.9893,VALID,282,VALID,0,
2010-04-12, 01:35:04,VALID,998.956,VALID,0,VALID,92.4405,VALID,0,VALID,24.9893,VALID,282,VALID,0,
2010-04-12, 01:36:04,VALID,998.956,VALID,0,VALID,92.4481,VALID,0,VALID,24.9484,VALID,282,VALID,0,
2010-04-12, 01:37:04,VALID,998.95,VALID,0,VALID,92.4634,VALID,0,VALID,24.9484,VALID,282,VALID,0,
2010-04-12, 01:38:04,VALID,998.922,VALID,0,VALID,92.5015,VALID,0,VALID,24.9698,VALID,282,VALID,0,
2010-04-12, 01:39:04,VALID,998.899,VALID,0,VALID,92.5397,VALID,0,VALID,24.9503,VALID,282,VALID,0,
2010-04-12, 01:40:04,VALID,998.874,VALID,0,VALID,92.5702,VALID,0,VALID,24.9289,VALID,282,VALID,0,
2010-04-12, 01:41:04,VALID,998.863,VALID,0,VALID,92.5626,VALID,0,VALID,24.9289,VALID,282,VALID,0,
2010-04-12, 01:42:04,VALID,998.862,VALID,0,VALID,92.6007,VALID,0,VALID,24.9093,VALID,203,VALID,0,
2010-04-12, 01:43:04,VALID,998.85,VALID,0,VALID,92.6312,VALID,0,VALID,24.9503,VALID,203,VALID,0,
2010-04-12, 01:44:04,VALID,998.862,VALID,0,VALID,92.6465,VALID,0,VALID,24.9308,VALID,203,VALID,0,
2010-04-12, 01:45:04,VALID,998.845,VALID,0,VALID,92.6541,VALID,0,VALID,24.9093,VALID,202,VALID,0,
2010-04-12, 01:46:04,VALID,998.859,VALID,0,VALID,92.6846,VALID,0,VALID,24.9093,VALID,177,VALID,0.774219,
2010-04-12, 01:47:04,VALID,998.828,VALID,0,VALID,92.677,VALID,0,VALID,24.9093,VALID,171,VALID,1.04062,
2010-04-12, 01:48:04,VALID,998.85,VALID,0,VALID,92.6694,VALID,0,VALID,24.9308,VALID,171,VALID,0.896484,
2010-04-12, 01:49:04,VALID,998.829,VALID,0,VALID,92.6923,VALID,0,VALID,24.9308,VALID,171,VALID,0.627734,
2010-04-12, 01:50:04,VALID,998.814,VALID,0,VALID,92.6846,VALID,0,VALID,24.9289,VALID,169,VALID,0.883203,
2010-04-12, 01:51:04,VALID,998.826,VALID,0,VALID,92.6617,VALID,0,VALID,24.9289,VALID,169,VALID,0.660937,
2010-04-12, 01:52:04,VALID,998.829,VALID,0,VALID,92.6388,VALID,0,VALID,24.9503,VALID,169,VALID,0.366406,
2010-04-12, 01:53:04,VALID,998.862,VALID,0,VALID,92.6388,VALID,0,VALID,24.9503,VALID,169,VALID,0.487891,
2010-04-12, 01:54:04,VALID,998.873,VALID,0,VALID,92.6694,VALID,0,VALID,24.9503,VALID,169,VALID,0.603906,
2010-04-12, 01:55:04,VALID,998.906,VALID,0,VALID,92.6846,VALID,0,VALID,24.9308,VALID,168,VALID,0.657031,
2010-04-12, 01:56:04,VALID,998.952,VALID,0,VALID,92.7228,VALID,0,VALID,24.9503,VALID,167,VALID,1.08828,
2010-04-12, 01:57:04,VALID,998.927,VALID,0,VALID,92.7228,VALID,0,VALID,24.9503,VALID,172,VALID,1.12734,
2010-04-12, 01:58:04,VALID,998.913,VALID,0,VALID,92.738,VALID,0,VALID,24.9484,VALID,176,VALID,1.13086,
2010-04-12, 01:59:04,VALID,998.922,VALID,0,VALID,92.7609,VALID,0,VALID,25.0088,VALID,181,VALID,1.08359,
2010-04-12, 02:00:04,VALID,998.917,VALID,0,VALID,92.6617,VALID,0,VALID,25.0088,VALID,177,VALID,0.912109,
2010-04-12, 02:01:04,VALID,998.859,VALID,0,VALID,92.5931,VALID,0,VALID,24.9874,VALID,178,VALID,0.704687,
2010-04-12, 02:02:04,VALID,998.819,VALID,0,VALID,92.6007,VALID,0,VALID,25.0284,VALID,182,VALID,0.350781,
2010-04-12, 02:03:04,VALID,998.797,VALID,0,VALID,92.5015,VALID,0,VALID,25.0284,VALID,212,VALID,0.326562,
2010-04-12, 02:04:04,VALID,998.781,VALID,0,VALID,92.3718,VALID,0,VALID,25.0088,VALID,212,VALID,0.203125,
2010-04-12, 02:05:04,VALID,998.794,VALID,0,VALID,92.2726,VALID,0,VALID,25.0284,VALID,212,VALID,0,
2010-04-12, 02:06:04,VALID,998.797,VALID,0,VALID,92.2421,VALID,0,VALID,25.0284,VALID,212,VALID,0,
2010-04-12, 02:07:04,VALID,998.795,VALID,0,VALID,92.1887,VALID,0,VALID,25.0284,VALID,306,VALID,0.667188,
2010-04-12, 02:08:04,VALID,998.793,VALID,0,VALID,92.2268,VALID,0,VALID,25.0479,VALID,322,VALID,0.6375,
2010-04-12, 02:09:04,VALID,998.806,VALID,0,VALID,92.2268,VALID,0,VALID,24.9874,VALID,322,VALID,0.397266,
2010-04-12, 02:10:04,VALID,998.828,VALID,0,VALID,92.265,VALID,0,VALID,25.0088,VALID,322,VALID,0.233984,
2010-04-12, 02:11:04,VALID,998.823,VALID,0,VALID,92.326,VALID,0,VALID,24.9893,VALID,322,VALID,0.148438,
2010-04-12, 02:12:04,VALID,998.83,VALID,0,VALID,92.3413,VALID,0,VALID,24.9698,VALID,322,VALID,0.109766,
2010-04-12, 02:13:04,VALID,998.82,VALID,0,VALID,92.3718,VALID,0,VALID,24.9893,VALID,322,VALID,0.104297,
2010-04-12, 02:14:04,VALID,998.824,VALID,0,VALID,92.4405,VALID,0,VALID,24.9698,VALID,322,VALID,0,
2010-04-12, 02:15:04,VALID,998.821,VALID,0,VALID,92.4328,VALID,0,VALID,24.9698,VALID,322,VALID,0.155078,
2010-04-12, 02:16:04,VALID,998.835,VALID,0,VALID,92.5015,VALID,0,VALID,24.9679,VALID,322,VALID,0.399219,
2010-04-12, 02:17:04,VALID,998.877,VALID,0,VALID,92.5702,VALID,0.112286,VALID,24.9679,VALID,322,VALID,0.491016,
2010-04-12, 02:18:04,VALID,998.882,VALID,0,VALID,92.5854,VALID,0.112286,VALID,24.9679,VALID,322,VALID,0.451562,
2010-04-12, 02:19:04,VALID,998.924,VALID,0,VALID,92.616,VALID,0.112286,VALID,24.9679,VALID,322,VALID,0.389453,
2010-04-12, 02:20:04,VALID,998.934,VALID,0,VALID,92.6694,VALID,0,VALID,24.9484,VALID,328,VALID,0.898047,
2010-04-12, 02:21:04,VALID,998.983,VALID,0,VALID,92.6541,VALID,0,VALID,24.927,VALID,345,VALID,1.35391,
2010-04-12, 02:22:04,VALID,998.983,VALID,0,VALID,92.6923,VALID,0,VALID,24.9093,VALID,340,VALID,0.914063,
2010-04-12, 02:23:04,VALID,998.99,VALID,0,VALID,92.7304,VALID,0.112286,VALID,24.9074,VALID,346,VALID,1.01602,
2010-04-12, 02:24:04,VALID,998.996,VALID,0,VALID,92.677,VALID,0,VALID,24.8898,VALID,332,VALID,0.794922,
2010-04-12, 02:25:04,VALID,999.015,VALID,0,VALID,92.7228,VALID,0.112286,VALID,24.8898,VALID,339,VALID,0.661719,
2010-04-12, 02:26:04,VALID,999.034,VALID,0,VALID,92.7228,VALID,0.112286,VALID,24.8898,VALID,330,VALID,0.380859,
2010-04-12, 02:27:04,VALID,999.016,VALID,0,VALID,92.7304,VALID,0,VALID,24.8898,VALID,328,VALID,0,
2010-04-12, 02:28:04,VALID,999.047,VALID,0,VALID,92.738,VALID,0.112286,VALID,24.8684,VALID,328,VALID,0.480078,
2010-04-12, 02:29:04,VALID,999.002,VALID,0,VALID,92.6923,VALID,0,VALID,24.8898,VALID,328,VALID,0.0832031,
2010-04-12, 02:30:04,VALID,999.013,VALID,0,VALID,92.6846,VALID,0,VALID,24.8684,VALID,337,VALID,0.315625,
2010-04-12, 02:31:04,VALID,999.034,VALID,0,VALID,92.6999,VALID,0,VALID,24.8898,VALID,337,VALID,0,
2010-04-12, 02:32:04,VALID,999.028,VALID,0,VALID,92.677,VALID,0,VALID,24.9112,VALID,337,VALID,0,
2010-04-12, 02:33:04,VALID,999.022,VALID,0,VALID,92.6236,VALID,0,VALID,24.9112,VALID,337,VALID,0,
2010-04-12, 02:34:04,VALID,999.056,VALID,0,VALID,92.6312,VALID,0,VALID,24.8917,VALID,337,VALID,0,
2010-04-12, 02:35:04,VALID,999.077,VALID,0,VALID,92.6236,VALID,0,VALID,24.9112,VALID,337,VALID,0,
2010-04-12, 02:36:04,VALID,999.068,VALID,0,VALID,92.6312,VALID,0,VALID,24.9093,VALID,337,VALID,0,
2010-04-12, 02:37:04,VALID,999.106,VALID,0,VALID,92.616,VALID,0,VALID,24.9308,VALID,337,VALID,0,
2010-04-12, 02:38:04,VALID,999.105,VALID,0,VALID,92.616,VALID,0,VALID,24.9503,VALID,337,VALID,0,
2010-04-12, 02:39:04,VALID,999.113,VALID,0,VALID,92.5778,VALID,0,VALID,24.9093,VALID,271,VALID,0,
2010-04-12, 02:40:04,VALID,999.102,VALID,0,VALID,92.5931,VALID,0,VALID,24.9503,VALID,207,VALID,0.491797,
2010-04-12, 02:41:04,VALID,999.113,VALID,0,VALID,92.5702,VALID,0,VALID,24.9698,VALID,207,VALID,0.657812,
2010-04-12, 02:42:04,VALID,999.114,VALID,0,VALID,92.6083,VALID,0,VALID,24.9679,VALID,207,VALID,0.596875,
2010-04-12, 02:43:04,VALID,999.092,VALID,0,VALID,92.5931,VALID,0,VALID,25.0088,VALID,207,VALID,0.452344,
2010-04-12, 02:44:04,VALID,999.077,VALID,0,VALID,92.4786,VALID,0,VALID,25.0284,VALID,232,VALID,0.550781,
2010-04-12, 02:45:04,VALID,999.078,VALID,0,VALID,92.3108,VALID,0,VALID,25.0284,VALID,234,VALID,0.673828,
2010-04-12, 02:46:04,VALID,999.055,VALID,0,VALID,92.1048,VALID,0,VALID,25.0655,VALID,234,VALID,0.530469,
2010-04-12, 02:47:04,VALID,999.064,VALID,0,VALID,92.0056,VALID,0.112286,VALID,25.1045,VALID,234,VALID,0.483594,
2010-04-12, 02:48:04,VALID,999.047,VALID,0,VALID,91.7996,VALID,0,VALID,25.1045,VALID,246,VALID,0.573047,
2010-04-12, 02:49:04,VALID,999.064,VALID,0,VALID,91.6394,VALID,0.112286,VALID,25.1417,VALID,269,VALID,0.333594,
2010-04-12, 02:50:04,VALID,999.077,VALID,0,VALID,91.5402,VALID,0,VALID,25.1631,VALID,282,VALID,0.715625,
2010-04-12, 02:51:04,VALID,999.031,VALID,0,VALID,91.3723,VALID,0.112286,VALID,25.1436,VALID,302,VALID,0.480078,
2010-04-12, 02:52:04,VALID,999.037,VALID,0,VALID,91.3342,VALID,0,VALID,25.1436,VALID,301,VALID,0.729688,
2010-04-12, 02:53:04,VALID,999.069,VALID,0,VALID,91.5097,VALID,0,VALID,25.1417,VALID,311,VALID,0,
2010-04-12, 02:54:04,VALID,999.068,VALID,0,VALID,91.4028,VALID,0,VALID,25.1436,VALID,318,VALID,1.15781,
2010-04-12, 02:55:04,VALID,999.049,VALID,0,VALID,91.5936,VALID,0.112286,VALID,25.1631,VALID,337,VALID,1.35156,
2010-04-12, 02:56:04,VALID,999.065,VALID,0,VALID,91.5326,VALID,0,VALID,25.1241,VALID,326,VALID,1.31172,
2010-04-12, 02:57:04,VALID,999.061,VALID,0.5,VALID,91.5631,VALID,0,VALID,25.0655,VALID,323,VALID,0.539063,
2010-04-12, 02:58:04,VALID,999.048,VALID,0,VALID,91.7691,VALID,0,VALID,25.046,VALID,323,VALID,0.182031,
2010-04-12, 02:59:04,VALID,999.057,VALID,0,VALID,91.8911,VALID,0,VALID,25.0069,VALID,301,VALID,0,
2010-04-12, 03:00:04,VALID,999.076,VALID,0.5,VALID,91.9369,VALID,0,VALID,24.9679,VALID,330,VALID,0.939844,
2010-04-12, 03:01:04,VALID,999.053,VALID,0,VALID,92.0666,VALID,0,VALID,24.9503,VALID,323,VALID,1.56602,
2010-04-12, 03:02:04,VALID,999.071,VALID,0,VALID,92.1811,VALID,0,VALID,24.9289,VALID,319,VALID,1.59805,
2010-04-12, 03:03:04,VALID,999.057,VALID,0,VALID,92.2803,VALID,0,VALID,24.9093,VALID,322,VALID,1.35195,
2010-04-12, 03:04:04,VALID,999.054,VALID,0.5,VALID,92.3413,VALID,0,VALID,24.9112,VALID,333,VALID,0.985156,
2010-04-12, 03:05:04,VALID,999.079,VALID,0,VALID,92.4252,VALID,0,VALID,24.9112,VALID,346,VALID,1.1457,
2010-04-12, 03:06:04,VALID,999.125,VALID,0,VALID,92.4786,VALID,0,VALID,24.8898,VALID,341,VALID,2.10273,
2010-04-12, 03:07:04,VALID,999.129,VALID,0.5,VALID,92.5244,VALID,0,VALID,24.8898,VALID,349,VALID,1.57461,
2010-04-12, 03:08:04,VALID,999.159,VALID,0,VALID,92.4252,VALID,0,VALID,24.8508,VALID,341,VALID,2.61602,
2010-04-12, 03:09:04,VALID,999.176,VALID,0.5,VALID,92.4405,VALID,0,VALID,24.8722,VALID,331,VALID,1.49844,
2010-04-12, 03:10:04,VALID,999.202,VALID,0,VALID,92.3031,VALID,0,VALID,24.8527,VALID,329,VALID,2.37773,
2010-04-12, 03:11:04,VALID,999.236,VALID,0,VALID,92.1658,VALID,0,VALID,24.8136,VALID,343,VALID,1.5168,
2010-04-12, 03:12:04,VALID,999.251,VALID,0,VALID,92.1658,VALID,0,VALID,24.7727,VALID,357,VALID,1.54844,
2010-04-12, 03:13:04,VALID,999.266,VALID,0,VALID,92.0132,VALID,0,VALID,24.7356,VALID,329,VALID,1.67695,
2010-04-12, 03:14:04,VALID,999.224,VALID,0.5,VALID,91.8606,VALID,0,VALID,24.6965,VALID,331,VALID,1.14688,
2010-04-12, 03:15:04,VALID,999.24,VALID,0,VALID,91.998,VALID,0,VALID,24.716,VALID,292,VALID,0.607422,
2010-04-12, 03:16:04,VALID,999.255,VALID,0,VALID,91.7309,VALID,0,VALID,24.6575,VALID,321,VALID,1.16562,
2010-04-12, 03:17:04,VALID,999.291,VALID,0,VALID,91.6623,VALID,0,VALID,24.6184,VALID,327,VALID,1.65156,
2010-04-12, 03:18:04,VALID,999.281,VALID,0,VALID,91.7233,VALID,0,VALID,24.5775,VALID,319,VALID,1.19219,
2010-04-12, 03:19:04,VALID,999.297,VALID,0,VALID,91.647,VALID,0,VALID,24.5599,VALID,332,VALID,1.43203,
2010-04-12, 03:20:04,VALID,999.306,VALID,0,VALID,91.6623,VALID,0,VALID,24.5385,VALID,359,VALID,1.4168,
2010-04-12, 03:21:04,VALID,999.317,VALID,0,VALID,91.5707,VALID,0,VALID,24.5209,VALID,346,VALID,1.34766,
2010-04-12, 03:22:04,VALID,999.294,VALID,0,VALID,91.5097,VALID,0,VALID,24.4604,VALID,336,VALID,1.36016,
2010-04-12, 03:23:04,VALID,999.31,VALID,0,VALID,91.235,VALID,0,VALID,24.4623,VALID,359,VALID,1.74922,
2010-04-12, 03:24:04,VALID,999.267,VALID,0,VALID,91.4181,VALID,0,VALID,24.4233,VALID,327,VALID,0.651953,
2010-04-12, 03:25:04,VALID,999.234,VALID,0,VALID,91.4181,VALID,0,VALID,24.4037,VALID,335,VALID,1.14375,
2010-04-12, 03:26:04,VALID,999.22,VALID,0,VALID,91.502,VALID,0,VALID,24.3433,VALID,333,VALID,0.776563,
2010-04-12, 03:27:04,VALID,999.188,VALID,0,VALID,91.6317,VALID,0,VALID,24.3238,VALID,294,VALID,0.645703,
2010-04-12, 03:28:04,VALID,999.156,VALID,0.5,VALID,91.708,VALID,0,VALID,24.2848,VALID,340,VALID,0.675,
2010-04-12, 03:29:04,VALID,999.147,VALID,0,VALID,91.8072,VALID,0,VALID,24.2866,VALID,339,VALID,0,
2010-04-12, 03:30:04,VALID,999.148,VALID,0,VALID,91.9522,VALID,0,VALID,24.2671,VALID,254,VALID,0.123047,
2010-04-12, 03:31:04,VALID,999.118,VALID,0,VALID,92.0056,VALID,0,VALID,24.2067,VALID,282,VALID,0.548828,
2010-04-12, 03:32:04,VALID,999.112,VALID,0,VALID,92.0819,VALID,0,VALID,24.2086,VALID,282,VALID,0.160156,
2010-04-12, 03:33:04,VALID,999.102,VALID,0.5,VALID,92.1429,VALID,0,VALID,24.2086,VALID,280,VALID,0.246484,
2010-04-12, 03:34:04,VALID,999.086,VALID,0,VALID,92.204,VALID,0,VALID,24.1696,VALID,224,VALID,0.0410156,
2010-04-12, 03:35:04,VALID,999.063,VALID,0,VALID,92.1887,VALID,0,VALID,24.1677,VALID,209,VALID,0.542188,
2010-04-12, 03:36:04,VALID,999.051,VALID,0,VALID,92.2192,VALID,0,VALID,24.2086,VALID,188,VALID,0.591406,
2010-04-12, 03:37:04,VALID,999.073,VALID,0,VALID,92.2116,VALID,0,VALID,24.2086,VALID,174,VALID,0.425781,
2010-04-12, 03:38:04,VALID,999.061,VALID,0,VALID,92.2497,VALID,0,VALID,24.1872,VALID,174,VALID,0.382422,
2010-04-12, 03:39:04,VALID,999.048,VALID,0,VALID,92.2345,VALID,0,VALID,24.2067,VALID,174,VALID,0.264453,
2010-04-12, 03:40:04,VALID,999.053,VALID,0,VALID,92.1734,VALID,0,VALID,24.1891,VALID,163,VALID,0.497656,
2010-04-12, 03:41:04,VALID,999.053,VALID,0,VALID,92.1582,VALID,0,VALID,24.1872,VALID,126,VALID,0.613281,
2010-04-12, 03:42:04,VALID,999.056,VALID,0,VALID,92.2268,VALID,0,VALID,24.2067,VALID,116,VALID,0.884766,
2010-04-12, 03:43:04,VALID,999.073,VALID,0,VALID,92.0971,VALID,0,VALID,24.2067,VALID,105,VALID,0.466797,
2010-04-12, 03:44:04,VALID,999.112,VALID,0,VALID,92.0209,VALID,0,VALID,24.2067,VALID,105,VALID,0,
2010-04-12, 03:45:04,VALID,999.131,VALID,0,VALID,92.0132,VALID,0,VALID,24.2281,VALID,105,VALID,0,
2010-04-12, 03:46:04,VALID,999.139,VALID,0,VALID,92.0437,VALID,0,VALID,24.2263,VALID,91,VALID,0,
2010-04-12, 03:47:04,VALID,999.122,VALID,0,VALID,92.12,VALID,0,VALID,24.2458,VALID,79,VALID,0,
2010-04-12, 03:48:04,VALID,999.154,VALID,0,VALID,92.1124,VALID,0,VALID,24.2458,VALID,79,VALID,0,
2010-04-12, 03:49:04,VALID,999.15,VALID,0,VALID,92.2268,VALID,0,VALID,24.2458,VALID,74,VALID,0,